Regional Weather Roundup
Issued by NWS

Home | Current Version | Previous Version | Text Only | Print | Product List | Glossary On
Versions: 1 2 3 4 5 6 7 8 9 10 11 12 13 14 15 16 17 18 19 20 21 22 23 24 25 26 27 28 29 30 31 32 33 34 35 36 37 38 39 40 41 42 43 44 45 46 47 48 49 50
000
ASUS43 KMKX 250621
RWRWI

WISCONSIN REGIONAL WEATHER ROUNDUP
NATIONAL WEATHER SERVICE MILWAUKEE/SULLIVAN WI
100 AM CDT SAT MAR 25 2017

NOTE: "FAIR" INDICATES FEW OR NO CLOUDS BELOW 12,000 FEET WITH NO
SIGNIFICANT WEATHER AND/OR OBSTRUCTIONS TO VISIBILITY.

WIZ001-002-006>008-014>016-023>028-250700-
NORTHWEST WISCONSIN

CITY           SKY/WX    TMP DP  RH WIND       PRES   REMARKS
SUPERIOR ARPT  CLOUDY    35  33  93 NE10      30.25S WCI  27
6HR MIN TEMP:  34; 6HR MAX TEMP:  36;

ASHLAND        CLOUDY    34  31  88 E12       30.25R WCI  25
6HR MIN TEMP:  34; 6HR MAX TEMP:  36;

HAYWARD        CLOUDY    36  29  75 NE7       30.21R WCI  30
6HR MIN TEMP:  35; 6HR MAX TEMP:  38;

SIREN          CLOUDY    36  30  79 CALM      30.23R
6HR MIN TEMP:  36; 6HR MAX TEMP:  38;

CUMBERLAND     CLOUDY    34  30  86 NE6       30.20R WCI  29
RICE LAKE      CLOUDY    36  32  85 CALM      30.21R
6HR MIN TEMP:  36; 6HR MAX TEMP:  38;

CHETEK         CLOUDY    36  32  86 NE6       30.20R WCI  31
6HR MIN TEMP:  36; 6HR MAX TEMP:  38;

LADYSMITH      CLOUDY    36  32  86 NE8       30.20S WCI  29
6HR MIN TEMP:  36; 6HR MAX TEMP:  38;

EAU CLAIRE     CLOUDY    38  33  82 NE9       30.17R WCI  31
6HR MIN TEMP:  38; 6HR MAX TEMP:  40;

MENOMONIE      CLOUDY    38  33  82 NE7       30.18R WCI  33
6HR MIN TEMP:  38; 6HR MAX TEMP:  41;

NEW RICHMOND   CLOUDY    36  31  82 NE8       30.19R WCI  30
6HR MIN TEMP:  36; 6HR MAX TEMP:  39;

OSCEOLA        CLOUDY    37  31  79 NE9       30.23R WCI  31
6HR MIN TEMP:  37; 6HR MAX TEMP:  40;

$$

WIZ003>005-009-010-017-018-250700-
NORTH CENTRAL WISCONSIN

CITY           SKY/WX    TMP DP  RH WIND       PRES   REMARKS
MANITOWISH WTR CLOUDY    32  32 100 NE5       30.20R WCI  27
6HR MIN TEMP:  32; 6HR MAX TEMP:  33;

ARBOR VITAE    CLOUDY    34  32  92 CALM      30.18R
6HR MIN TEMP:  34; 6HR MAX TEMP:  37;

WOODRUFF       CLOUDY    34  32  92 CALM      30.18R
6HR MIN TEMP:  34; 6HR MAX TEMP:  37;

RHINELANDER    CLOUDY    34  31  88 NE5       30.19R WCI  30
6HR MIN TEMP:  34; 6HR MAX TEMP:  36;

EAGLE RIVER    CLOUDY    32  32  99 E6        30.18R WCI  27
6HR MIN TEMP:  32; 6HR MAX TEMP:  34;

LAND O LAKES   CLOUDY    32  32 100 NE7       30.21R FOG     WCI  26
6HR MIN TEMP:  32; 6HR MAX TEMP:  35;

PHILLIPS       CLOUDY    33  31  92 NE9       30.17S WCI  25
6HR MIN TEMP:  33; 6HR MAX TEMP:  36;

TOMAHAWK       CLOUDY    33  30  88 NE5       30.19R WCI  28
6HR MIN TEMP:  33; 6HR MAX TEMP:  35;

MEDFORD        CLOUDY    33  31  91 E12       30.16R WCI  25
6HR MIN TEMP:  33; 6HR MAX TEMP:  36;

MERRILL        CLOUDY    34  32  92 E6        30.19R WCI  29
6HR MIN TEMP:  34; 6HR MAX TEMP:  37;

$$

WIZ029-030-035-036-043>047-250700-
CENTRAL WISCONSIN

CITY           SKY/WX    TMP DP  RH WIND       PRES   REMARKS
WAUSAU         CLOUDY    34  32  92 E8        30.17R WCI  27
6HR MIN TEMP:  34; 6HR MAX TEMP:  37;

MOSINEE        CLOUDY    34  34 100 E12       30.18S WCI  25
MARSHFIELD     CLOUDY    35  32  88 E12       30.15R WCI  27
6HR MIN TEMP:  35; 6HR MAX TEMP:  38; 6HR PCP: TRACE;

STEVENS POINT  CLOUDY    33  33  99 NE15G22   30.18S WCI  23
6HR MIN TEMP:  33; 6HR MAX TEMP:  35;

WAUPACA        DRIZZLE   37  35  92 NE6       30.19R WCI  32
6HR MIN TEMP:  37; 6HR MAX TEMP:  38; 6HR PCP:  0.04;

WAUTOMA        LGT RAIN  36  34  92 NE14      30.16F WCI  27
6HR MIN TEMP:  36; 6HR MAX TEMP:  37; 6HR PCP:  0.37;

WISC RAPIDS    CLOUDY    36  35  96 E12       30.17S WCI  28
6HR MIN TEMP:  36; 6HR MAX TEMP:  38; 6HR PCP:  0.03;

CAMP DOUGLAS   CLOUDY    37  36  93 NE7       30.14R WCI  32
                                      6HR PCP:  0.22;

$$

WIZ011>013-019>022-031-037>040-048>050-250700-
NORTHEAST WISCONSIN

CITY           SKY/WX    TMP DP  RH WIND       PRES   REMARKS
ANTIGO         CLOUDY    32  31  95 E8        30.18S WCI  25
6HR MIN TEMP:  32; 6HR MAX TEMP:  35;

SHAWANO        CLOUDY    37  33  87 NE10      30.22R WCI  29
6HR MIN TEMP:  36; 6HR MAX TEMP:  38;

OCONTO         CLOUDY    35  32  90 NE6       30.21R WCI  30
6HR MIN TEMP:  35; 6HR MAX TEMP:  36;

STURGEON BAY   CLOUDY    34  32  93 N9        30.21R WCI  26
6HR MIN TEMP:  34; 6HR MAX TEMP:  36; 6HR PCP: TRACE;

GREEN BAY      CLOUDY    35  34  96 NE15      30.20R WCI  25
6HR MIN TEMP:  35; 6HR MAX TEMP:  37; 6HR PCP:  0.20;

MANITOWOC      LGT RAIN  35  34  96 N10G17    30.17F WCI  27
6HR MIN TEMP:  35; 6HR MAX TEMP:  36;

APPLETON       LGT RAIN  34  34 100 NE13G26   30.16S WCI  25
CLINTONVILLE   CLOUDY    34  32  93 NE9       30.21R WCI  26
OSHKOSH        CLOUDY    35  33  92 NE13      30.16S WCI  26
6HR MIN TEMP:  35; 6HR MAX TEMP:  36; 6HR PCP:  0.27;

$$

WIZ032>034-041-042-053>061-250700-
SOUTHWEST WISCONSIN

CITY           SKY/WX    TMP DP  RH WIND       PRES   REMARKS
LA CROSSE      CLOUDY    40  37  89 NE5       30.15R
6HR MIN TEMP:  40; 6HR MAX TEMP:  43; 6HR PCP:  0.07;

SPARTA         CLOUDY    37  36  96 NE7       30.15R WCI  32
6HR MIN TEMP:  37; 6HR MAX TEMP:  39; 6HR PCP:  0.06;

VIROQUA        CLOUDY    36  36  98 E17       30.10R WCI  26
6HR MIN TEMP:  36; 6HR MAX TEMP:  38; 6HR PCP:  0.42;

BOSCOBEL       CLOUDY    39  37  92 VRB6      30.12R FOG     WCI  35
6HR MIN TEMP:  39; 6HR MAX TEMP:  44; 6HR PCP:  0.05;

PRAIRIE DU CHI CLOUDY    38  37  97 NE10      30.10R FOG     WCI  31
6HR MIN TEMP:  38; 6HR MAX TEMP:  43; 6HR PCP:  0.08;

PLATTEVILLE    CLOUDY    38  38  99 NE14      30.07R WCI  30
6HR MIN TEMP:  38; 6HR MAX TEMP:  47; 6HR PCP:  0.01;

$$

WIZ056-057-062-063-064-067-068-250700-
SOUTH CENTRAL WISCONSIN

CITY           SKY/WX    TMP DP  RH WIND       PRES   REMARKS
REEDSBURG      LGT RAIN  35  35 100 E10G18    30.12F WCI  28
6HR MIN TEMP:  35; 6HR MAX TEMP:  38; 6HR PCP:  0.13;

BARABOO/DELLS  DRIZZLE   35  34  96 E14       30.12F WCI  26
6HR MIN TEMP:  35; 6HR MAX TEMP:  37; 6HR PCP:  0.05;

LONE ROCK      CLOUDY    38  34  85 E12       30.11F WCI  30
6HR MIN TEMP:  38; 6HR MAX TEMP:  43; 6HR PCP:  0.01;

MINERAL POINT  CLOUDY    37  37 100 NE14      30.07S WCI  29
MADISON        CLOUDY    37  33  85 NE14G23   30.11S WCI  28
6HR MIN TEMP:  37; 6HR MAX TEMP:  40;

MIDDLETON      CLOUDY    38  35  89 E14       30.11S WCI  30
6HR MIN TEMP:  38; 6HR MAX TEMP:  42;

WATERTOWN      DRIZZLE   37  36  96 NE12G18   30.11S WCI  29
6HR MIN TEMP:  37; 6HR MAX TEMP:  41;

MONROE         CLOUDY    37  37 100 NE16      30.05F WCI  28
JANESVILLE     DRIZZLE   39  37  93 NE8       30.08S WCI  34
$$

WIZ051-052-058>065-066-070>072-250700-
SOUTHEAST WISCONSIN

CITY           SKY/WX    TMP DP  RH WIND       PRES   REMARKS
MILWAUKEE      LGT RAIN  38  34  85 N21G29    30.10S FOG     WCI  28
6HR MIN TEMP:  38; 6HR MAX TEMP:  38; 6HR PCP: TRACE;

WAUKESHA       CLOUDY    36  32  87 NE15      30.11F WCI  26
MILWAUKEE/TIMM CLOUDY    36  32  87 NE13G21   30.12F WCI  27
RACINE         LGT RAIN  37  34  89 N18G26    30.12R WCI  27
6HR MIN TEMP:  37; 6HR MAX TEMP:  38; 6HR PCP: TRACE;

KENOSHA        LGT RAIN  38  35  89 NE13G20   30.09R WCI  30
6HR MIN TEMP:  38; 6HR MAX TEMP:  39; 6HR PCP: TRACE;

FOND DU LAC    LGT RAIN  37  33  85 NE14      30.15S WCI  28
6HR MIN TEMP:  37; 6HR MAX TEMP:  37; 6HR PCP:  0.06;

SHEBOYGAN      LGT RAIN  36  34  92 NE16      30.15F WCI  26
6HR MIN TEMP:  36; 6HR MAX TEMP:  36; 6HR PCP:  0.04;

WEST BEND      CLOUDY    36  34  93 NE14      30.13F WCI  27
JUNEAU         CLOUDY    36  33  89 NE14G20   30.12F WCI  27
6HR MIN TEMP:  36; 6HR MAX TEMP:  38;

$$

LSZ147-162-250700-
LAKE SUPERIOR

STATION/POSITION TIME  TEMP    WIND        PRES    WAVE
                       AIR SEA DIR/SP/G            HT/PER
                 (UTC) (F)     (DEG/KT/KT) (MB)    (FT/S)
DEVILS ISLAND    0600   35      80/ 16/ 18 1025.7R
PORT WING        0530   36      70/  7/  9 1024.4S
SAXON HARBOR     0530   34      50/ 10/ 12 1023.7S
$$

LMZ867-665-643>646-250700-
LAKE MICHIGAN

STATION/POSITION TIME  TEMP    WIND        PRES    WAVE
                       AIR SEA DIR/SP/G            HT/PER
                 (UTC) (F)     (DEG/KT/KT) (MB)    (FT/S)
CHAMBERS ISLAND  0540   34      10/  9/ 13



USA.gov is the U.S. government's official web portal to all federal, state and local government web resources and services.